[[{"header":{"parameterUnit":"m.s-1","parameterCategory":1,"la1":30.2991,"la2":30.254,"lo1":-89.0895,"lo2":-89.0444,"dy":0.0017,"dx":0.0017,"nx":28,"ny":28,"refTime":"2023-11-15T09:00:00:Z","depth":0,"parameterNumber":2,"parameterNumberName":"U-component_of_WINDS"},"data":[0,0,0,0,0,0,0,0,0,0,0,0,0,0,0,0,0,0,0,0,0,0,0,0,0,0,0,0,0,0,0,0,0,0,0,0,0,0,0,0,0,0,0,0,0,0,0,0,0,0,0,0,0,0,0,0,0,0,-3.8686,-3.8692,0,-3.9273,-3.928,-3.9286,-3.9493,-3.9491,-3.9489,-3.9487,-4.0101,-4.0119,-4.0137,0,0,0,0,0,0,0,0,0,0,0,0,0,-3.7759,-3.7774,-3.8686,-3.8693,-3.87,-3.9272,-3.928,-3.9288,-3.9494,-3.9491,-3.9488,-3.9486,-4.0095,-4.0117,-4.0139,0,0,0,0,0,0,0,0,0,0,0,0,0,-3.8235,-3.778,-3.8684,-3.8871,-3.8894,-3.927,-3.928,-3.929,-3.9494,-3.9491,-3.9488,-3.9484,-4.0088,-4.0114,-4.0142,-4.0378,0,0,-4.0226,-4.0238,0,0,0,0,0,0,0,0,-3.8208,-3.8269,-3.8837,-3.8859,-3.8885,-3.9306,-3.9179,-3.9656,-3.9495,-3.9267,-3.9487,-3.9483,-3.984,-3.9888,-4.0006,-4.0407,-4.0434,-4.0228,-4.0245,-4.0257,-4.0265,0,0,0,0,0,0,0,-3.8174,-3.8245,-3.8919,-3.8845,-3.8875,-3.8931,-3.8995,-3.927,-3.9565,-3.9286,-3.9303,-3.9369,-3.9853,-3.9978,-4.0022,-4.0443,-4.0228,-4.0252,-4.0269,-4.028,-4.1076,-4.108,0,0,0,0,0,0,-3.8108,-3.8216,-3.89,-3.8936,-3.8531,-3.8951,-3.9022,-3.9175,-3.9563,-3.9618,-3.9371,-3.9376,-3.9933,-3.9989,-4.0044,-4.0352,-4.0257,-4.0283,-4.0299,-4.1072,-4.1077,-4.1082,0,0,0,0,0,0,-3.8087,-3.8167,-3.8876,-3.8581,-3.8675,-3.897,-3.914,-3.9188,-3.9314,-3.9626,-3.9682,-3.9444,-3.9933,-4.0005,-4.0295,-4.0375,-4.0295,-4.032,-4.1066,-4.1073,-4.108,-4.0964,0,0,0,0,0,0,-3.806,-3.8158,-3.8247,-3.8581,-3.869,-3.9111,-3.9145,-3.9202,-3.9359,-3.9372,-3.971,-3.9763,-3.9935,-4.0252,-4.0322,-4.0412,-4.0342,-4.106,-4.1069,-4.1077,-4.0962,-4.0966,-4.097,0,0,0,0,0,-3.8026,-3.8193,-3.825,-3.8332,-3.8807,-3.9115,-3.9179,-3.937,-3.9364,-3.946,-3.9662,-3.9752,-4.0354,-4.028,-4.036,-4.046,-4.1056,-4.1067,-4.1077,-4.0961,-4.0965,-4.097,0,0,0,0,0,0,-3.7864,-3.824,-3.8308,-3.8587,-3.8817,-3.9149,-3.9275,-3.9369,-3.9609,-3.9611,-3.9843,-3.9918,-4.019,-4.0355,-4.0264,-4.0713,-4.0711,-4.0738,-4.0595,-4.0603,-4.0606,-4.0563,-4.0365,0,0,0,0,0,-3.786,-3.8075,-3.8394,-3.8609,-3.8721,-3.8977,-3.9119,-3.9247,-3.9497,-3.9597,-3.982,-4.0062,-4.0308,-4.0464,-4.0707,-4.0987,-4.1067,-4.1096,-4.1099,-4.1101,-4.1122,-4.1289,-4.1307,-4.1116,-4.1116,-4.1116,0,0,-3.7856,-3.8088,-3.821,-3.8583,-3.8776,-3.8999,-3.9058,-3.929,-3.946,-3.9634,-3.992,-4.0092,-4.038,-4.0666,-4.0804,-4.0812,-4.1193,-4.1114,-4.1113,-4.1134,-4.1301,-4.1319,-4.1335,-4.1123,-4.1122,-4.112,0,0,-3.7962,-3.8156,-3.8359,-3.8552,-3.8844,-3.9014,-3.9062,-3.9382,-3.9502,-3.9793,-3.9929,-4.0137,-4.0552,-4.0753,-4.0909,-4.1095,-4.119,-4.1168,-4.1189,-4.1348,-4.1363,-4.1378,-4.1449,-4.1471,-4.1188,-4.1187,-4.1187,0,-3.792,-3.8256,-3.8453,-3.8679,-3.8842,-3.9006,-3.9218,-3.9397,-3.9753,-3.9865,-3.9867,-4.0395,-4.06,-4.0939,-4.0984,-4.1103,-4.1171,-4.1131,-4.1344,-4.1361,-4.1378,-4.1449,-4.1474,-4.1183,-4.1184,-4.1184,-4.1185,0,-3.8194,-3.8425,-3.8556,-3.8893,-3.9071,-3.9287,-3.9523,-3.968,-3.9793,-3.9964,-4.0262,-4.0514,-4.0812,-4.0902,-4.1015,-4.1259,-4.1256,-4.1298,-4.1302,-4.1388,-4.1459,-4.1487,-4.1177,-4.1179,-4.118,-4.1181,0,0,-3.8213,-3.8658,-3.8703,-3.886,-3.9196,-3.9382,-3.9609,-3.9897,-4.003,-4.0272,-4.0473,-4.0822,-4.0865,-4.1042,-4.1181,-4.132,-4.1458,-4.1348,-4.1358,-4.1363,-4.1749,-4.1716,-4.1743,-4.1522,-4.1527,-4.1532,-4.1726,0,-3.8366,-3.8774,-3.896,-3.9288,-3.9508,-3.9669,-3.9869,-4.0099,-4.0267,-4.0482,-4.067,-4.0915,-4.095,-4.1059,-4.1204,-4.1409,-4.1539,-4.1398,-4.1717,-4.1726,-4.1641,-4.178,-4.1746,-4.1916,-4.1754,-4.1759,-4.1762,0,-3.8597,-3.8837,-3.9185,-3.9499,-3.9598,-3.9773,-4.0055,-4.0257,-4.0525,-4.0638,-4.0836,-4.0969,-4.1222,-4.1206,-4.156,-4.146,-4.1602,-4.1723,-4.1735,-4.1774,-4.175,-4.1827,-4.1975,-4.2001,-4.1807,-4.1803,-4.18,0,-3.8581,-3.8991,-3.9254,-3.9383,-3.9754,-3.9875,-4.0036,-4.03,-4.0463,-4.0711,-4.0821,-4.1096,-4.1248,-4.1461,-4.1668,-4.1636,-4.2004,-4.2004,-4.211,-4.2105,-4.2182,-4.2175,-4.2358,-4.2267,-4.2267,-4.2266,-4.2266,0,-3.8733,-3.8941,-3.9252,-3.9414,-3.9654,-3.9868,-4.0102,-4.0276,-4.051,-4.0714,-4.0871,-4.106,-4.132,-4.1543,-4.1707,-4.1979,-4.2046,-4.2148,-4.219,-4.2136,-4.2123,-4.2234,-4.2229,-4.2274,-4.2272,-4.2271,-4.2269,0,-3.8756,-3.8971,-3.927,-3.9596,-3.9684,-3.9847,-4.013,-4.0297,-4.0472,-4.0728,-4.0801,-4.1079,-4.135,-4.1577,-4.1934,-4.2045,-4.2329,-4.2376,-4.2237,-4.226,-4.2354,-4.2343,-4.2617,-4.2667,-4.2538,-4.2539,-4.2539,0,-3.8839,-3.9003,-3.9348,-3.9493,-3.9651,-3.9883,-4.0051,-4.027,-4.0439,-4.0758,-4.0888,-4.117,-4.1407,-4.1835,-4.2073,-4.2349,-4.2406,-4.2484,-4.2449,-4.2391,-4.2413,-4.2401,-4.2422,-4.2486,-4.2487,-4.2487,-4.2487,0,-3.8967,-3.9066,-3.9298,-3.957,-3.9764,-3.9989,-4.0219,-4.0331,-4.0594,-4.0777,-4.1054,-4.1238,-4.1603,-4.1884,-4.2186,-4.2359,-4.247,-4.2496,-4.2536,-4.2483,-4.2397,-4.245,-4.2248,-4.2489,-4.2489,-4.2489,-4.2488,-4.2488,-3.9026,-3.9181,-3.9448,-3.9703,-3.9899,-4.0111,-4.0285,-4.0482,-4.0716,-4.1027,-4.1144,-4.143,-4.1701,-4.2117,-4.2291,-4.2523,-4.2537,-4.2593,-4.2608,-4.262,-4.2614,-4.2357,-4.2578,-4.2578,-4.2579,-4.2579,-4.2579,0,-3.9165,-3.9345,-3.9577,-3.9893,-4.0096,-4.0177,-4.0437,-4.0603,-4.0851,-4.1091,-4.1322,-4.1644,-4.1918,-4.2177,-4.2466,-4.2602,-4.266,-4.2671,-4.2665,-4.2704,-4.2583,-4.2521,-4.2619,-4.2619,-4.2619,-4.2619,-4.2619,-4.2619,-3.926,-3.9528,-3.966,-4.0029,-4.021,-4.0488,-4.063,-4.0829,-4.1023,-4.1374,-4.1601,-4.1766,-4.2018,-4.2327,-4.2584,-4.2654,-4.2755,-4.2753,-4.2836,-4.2719,-4.2712,-4.2705,-4.2648,-4.2772,-4.2772,-4.294,-4.2941,-4.2942]},{"header":{"parameterUnit":"m.s-1","parameterCategory":1,"la1":30.2991,"la2":30.254,"lo1":-89.0895,"lo2":-89.0444,"dy":0.0017,"dx":0.0017,"nx":28,"ny":28,"refTime":"2023-11-15T09:00:00:Z","depth":0,"parameterNumber":3,"parameterNumberName":"V-component_of_WINDS"},"data":[0,0,0,0,0,0,0,0,0,0,0,0,0,0,0,0,0,0,0,0,0,0,0,0,0,0,0,0,0,0,0,0,0,0,0,0,0,0,0,0,0,0,0,0,0,0,0,0,0,0,0,0,0,0,0,0,0,0,-8.9158,-8.9158,0,-8.9167,-8.9167,-8.9167,-8.9034,-8.903,-8.9026,-8.9023,-8.903,-8.9034,-8.9037,0,0,0,0,0,0,0,0,0,0,0,0,0,-8.9023,-8.9026,-8.9158,-8.9158,-8.9158,-8.9167,-8.9167,-8.9167,-8.9034,-8.903,-8.9026,-8.9021,-8.9029,-8.9033,-8.9038,0,0,0,0,0,0,0,0,0,0,0,0,0,-8.9062,-8.9027,-8.9158,-8.9093,-8.9087,-8.9167,-8.9167,-8.9167,-8.9035,-8.903,-8.9024,-8.9019,-8.9028,-8.9033,-8.9038,-8.9179,0,0,-8.9054,-8.9057,0,0,0,0,0,0,0,0,-8.906,-8.9067,-8.9103,-8.9098,-8.9091,-8.9094,-8.9122,-8.9171,-8.9037,-8.9055,-8.9023,-8.9017,-8.9056,-8.9058,-8.9072,-8.918,-8.918,-8.9055,-8.9058,-8.906,-8.9062,0,0,0,0,0,0,0,-8.9057,-8.9066,-8.9161,-8.9103,-8.9096,-8.9062,-8.9062,-8.913,-8.9085,-8.9053,-8.9043,-8.9046,-8.9051,-8.9067,-8.9071,-8.918,-8.9055,-8.9059,-8.9063,-8.9065,-8.9402,-8.9408,0,0,0,0,0,0,-8.9064,-8.9064,-8.9161,-8.9161,-8.9062,-8.9069,-8.9069,-8.9098,-8.9084,-8.9077,-8.9051,-8.904,-8.906,-8.9065,-8.9071,-8.9234,-8.906,-8.9065,-8.9068,-8.9397,-8.9404,-8.941,0,0,0,0,0,0,-8.9061,-8.9074,-8.9161,-8.911,-8.9119,-8.9077,-8.9112,-8.9101,-8.9117,-8.9083,-8.9074,-8.9075,-8.9056,-8.9063,-8.9153,-8.9233,-8.9068,-8.9073,-8.939,-8.9399,-8.9407,-8.9564,0,0,0,0,0,0,-8.9058,-8.9074,-8.9128,-8.9113,-8.9122,-8.9244,-8.9117,-8.9105,-8.9126,-8.9112,-8.9103,-8.9096,-8.9053,-8.9146,-8.9158,-8.9237,-8.9077,-8.9382,-8.9394,-8.9404,-8.9551,-8.9577,-8.9598,0,0,0,0,0,-8.9054,-8.9172,-8.9131,-8.9144,-8.9189,-8.9249,-8.9254,-8.9202,-8.9133,-8.9187,-8.9165,-8.9097,-8.9222,-8.9156,-8.9169,-8.9251,-8.9377,-8.9391,-8.9403,-8.9541,-8.9572,-8.9598,0,0,0,0,0,0,-8.9197,-8.9169,-8.9124,-8.924,-8.9248,-8.9227,-8.9293,-8.9237,-8.9264,-8.925,-8.9183,-8.9182,-8.9283,-8.9275,-8.9203,-8.9386,-8.9287,-8.9303,-8.9387,-8.9416,-8.944,-8.944,-8.9081,0,0,0,0,0,-8.9243,-8.9295,-8.9266,-8.9372,-8.9378,-8.9335,-8.9359,-8.9318,-8.9324,-8.9326,-8.9311,-8.9318,-8.9358,-8.9387,-8.9422,-8.9549,-8.9545,-8.9611,-8.9635,-8.9654,-8.967,-8.9735,-8.9764,-8.9452,-8.9452,-8.9452,0,0,-8.9337,-8.9327,-8.9364,-8.94,-8.9402,-8.9456,-8.9339,-8.9402,-8.9441,-8.9335,-8.942,-8.9408,-8.9412,-8.9521,-8.9568,-8.9518,-8.9754,-8.9671,-8.9687,-8.9691,-8.9752,-8.9781,-8.9807,-8.9461,-8.946,-8.9458,0,0,-8.9536,-8.9534,-8.9622,-8.9625,-8.9629,-8.9599,-8.962,-8.9607,-8.9595,-8.9679,-8.96,-8.9645,-8.9717,-8.9723,-8.9735,-8.9934,-8.9873,-8.9948,-9.0071,-9.0136,-9.0161,-9.0182,-9.0253,-9.028,-8.9962,-8.9963,-8.9963,0,-8.9652,-8.9732,-8.9673,-8.9742,-8.9759,-8.9666,-8.9753,-8.9759,-8.9774,-8.9788,-8.9731,-8.9819,-8.9814,-8.9923,-8.9972,-8.9984,-9.0006,-8.9949,-9.0162,-9.0183,-9.0202,-9.0269,-9.0296,-8.9972,-8.9971,-8.997,-8.9969,0,-8.9875,-8.9931,-9.0001,-9.0018,-9.0043,-9.0121,-9.0073,-9.0105,-9.0061,-9.0037,-9.0122,-9.0114,-9.0146,-9.0168,-9.0126,-9.0271,-9.0239,-9.0174,-9.0073,-9.0242,-9.0304,-9.0329,-8.9985,-8.9982,-8.9979,-8.9977,0,0,-9.0167,-9.0149,-9.0176,-9.0182,-9.0178,-9.022,-9.0292,-9.0323,-9.0352,-9.0365,-9.0424,-9.0486,-9.0424,-9.0438,-9.0396,-9.0453,-9.0611,-9.0379,-9.0378,-9.0423,-9.0769,-9.082,-9.085,-9.0569,-9.0574,-9.0578,-9.0769,0,-9.0361,-9.0484,-9.0432,-9.056,-9.0611,-9.0522,-9.0584,-9.0588,-9.0567,-9.0606,-9.0582,-9.0628,-9.0543,-9.0551,-9.0603,-9.0581,-9.068,-9.0566,-9.0623,-9.0626,-9.0626,-9.0883,-9.0936,-9.1117,-9.0793,-9.0797,-9.08,0,-9.0604,-9.0627,-9.076,-9.0746,-9.0765,-9.0823,-9.0846,-9.0885,-9.0887,-9.0867,-9.0883,-9.0827,-9.0895,-9.0795,-9.0889,-9.0813,-9.0833,-9.0825,-9.0831,-9.0835,-9.0724,-9.0894,-9.1174,-9.1202,-9.0837,-9.0834,-9.0832,0,-9.0804,-9.0868,-9.0955,-9.0963,-9.0949,-9.0991,-9.0987,-9.0983,-9.1005,-9.1025,-9.1038,-9.1067,-9.1083,-9.1105,-9.1058,-9.099,-9.1158,-9.1054,-9.1144,-9.1146,-9.1185,-9.1183,-9.1472,-9.1197,-9.1196,-9.1196,-9.1195,0,-9.1026,-9.1112,-9.1045,-9.1099,-9.1191,-9.113,-9.1222,-9.1208,-9.1205,-9.1254,-9.1178,-9.1226,-9.116,-9.1201,-9.1164,-9.1247,-9.1255,-9.1241,-9.123,-9.1248,-9.125,-9.1261,-9.1248,-9.1203,-9.1201,-9.12,-9.1199,0,-9.1266,-9.1225,-9.1315,-9.1293,-9.1289,-9.1358,-9.1339,-9.1388,-9.136,-9.1424,-9.1435,-9.1392,-9.1436,-9.1391,-9.1432,-9.1407,-9.1519,-9.149,-9.1519,-9.1511,-9.1604,-9.1596,-9.1911,-9.1949,-9.1649,-9.1652,-9.1654,0,-9.1412,-9.1475,-9.146,-9.1487,-9.1488,-9.1533,-9.1554,-9.1495,-9.1521,-9.1527,-9.1575,-9.1612,-9.1639,-9.1714,-9.1686,-9.1717,-9.1688,-9.1796,-9.1693,-9.1709,-9.169,-9.1688,-9.1694,-9.1818,-9.1822,-9.1825,-9.1827,0,-9.1674,-9.165,-9.1684,-9.1711,-9.1739,-9.1757,-9.177,-9.1796,-9.1735,-9.1767,-9.1811,-9.1833,-9.1874,-9.1912,-9.1935,-9.1929,-9.1869,-9.186,-9.1882,-9.1902,-9.1916,-9.191,-9.1578,-9.1853,-9.185,-9.1849,-9.1847,-9.1846,-9.1871,-9.1923,-9.192,-9.196,-9.1963,-9.1976,-9.202,-9.1998,-9.2034,-9.2063,-9.2026,-9.208,-9.2079,-9.2103,-9.2104,-9.2146,-9.21,-9.2132,-9.2141,-9.215,-9.2164,-9.1909,-9.2149,-9.2148,-9.2148,-9.2147,-9.2146,0,-9.213,-9.2123,-9.2161,-9.218,-9.2211,-9.215,-9.216,-9.2191,-9.224,-9.2243,-9.2271,-9.2321,-9.2358,-9.2333,-9.2363,-9.2401,-9.2374,-9.2411,-9.2408,-9.2408,-9.2203,-9.2181,-9.2433,-9.2433,-9.2432,-9.2432,-9.2432,-9.2432,-9.2269,-9.2353,-9.2328,-9.2412,-9.2404,-9.2457,-9.2468,-9.2479,-9.2481,-9.2541,-9.2571,-9.2554,-9.2546,-9.2575,-9.2605,-9.2596,-9.2612,-9.2659,-9.2641,-9.2451,-9.2422,-9.2396,-9.2374,-9.2663,-9.2663,-9.2843,-9.2844,-9.2846]}]]